Wetterdaten: Freitag, 30.07.2010
Datum Zeit Temp. A. Feuchte A. Luftdruck Regen Wind Richtung Richtung Sonnenschein UV Solar Windben
30.07.2010 00:00 14,5 C 92 % 1010,9 hPa 0,0 mm 1,6 km/h (1 Bft) W-SW 247 0 min 0 UV-I 0 W/m 8,0 km/h (2 Bft)
30.07.2010 00:10 14,4 C 92 % 1011,2 hPa 0,0 mm 1,6 km/h (1 Bft) W-SW 247 0 min 0 UV-I 0 W/m 9,7 km/h (2 Bft)
30.07.2010 00:20 14,4 C 93 % 1011,1 hPa 0,0 mm 1,6 km/h (1 Bft) W 270 0 min 0 UV-I 0 W/m 8,0 km/h (2 Bft)
30.07.2010 00:30 14,2 C 92 % 1011,1 hPa 0,0 mm 3,2 km/h (1 Bft) W-SW 247 0 min 0 UV-I 0 W/m 9,7 km/h (2 Bft)
30.07.2010 00:40 13,8 C 92 % 1011,1 hPa 0,0 mm 1,6 km/h (1 Bft) SW 225 0 min 0 UV-I 0 W/m 11,3 km/h (2 Bft)
30.07.2010 00:50 13,6 C 92 % 1011,2 hPa 0,0 mm 1,6 km/h (1 Bft) W-SW 247 0 min 0 UV-I 0 W/m 9,7 km/h (2 Bft)
30.07.2010 01:00 13,4 C 92 % 1011,2 hPa 0,0 mm 0,0 km/h (0 Bft) W-SW 247 0 min 0 UV-I 0 W/m 4,8 km/h (1 Bft)
30.07.2010 01:10 13,3 C 92 % 1011,1 hPa 0,0 mm 0,0 km/h (0 Bft) W-SW 247 0 min 0 UV-I 0 W/m 3,2 km/h (1 Bft)
30.07.2010 01:20 13,2 C 92 % 1011,2 hPa 0,0 mm 0,0 km/h (0 Bft) SW 225 0 min 0 UV-I 0 W/m 1,6 km/h (1 Bft)
30.07.2010 01:30 13,1 C 92 % 1011,2 hPa 0,0 mm 0,0 km/h (0 Bft) SW 225 0 min 0 UV-I 0 W/m 3,2 km/h (1 Bft)
30.07.2010 01:40 13,2 C 92 % 1011,2 hPa 0,0 mm 0,0 km/h (0 Bft) SW 225 0 min 0 UV-I 0 W/m 6,4 km/h (2 Bft)
30.07.2010 01:50 13,3 C 93 % 1011,2 hPa 0,0 mm 1,6 km/h (1 Bft) W-SW 247 0 min 0 UV-I 0 W/m 8,0 km/h (2 Bft)
30.07.2010 02:00 13,4 C 92 % 1011,2 hPa 0,3 mm 0,0 km/h (0 Bft) W-SW 247 0 min 0 UV-I 0 W/m 6,4 km/h (2 Bft)
30.07.2010 02:10 13,4 C 93 % 1011,2 hPa 0,0 mm 0,0 km/h (0 Bft) W-SW 247 0 min 0 UV-I 0 W/m 1,6 km/h (1 Bft)
30.07.2010 02:20 13,5 C 92 % 1011,2 hPa 0,0 mm 0,0 km/h (0 Bft) W-SW 247 0 min 0 UV-I 0 W/m 3,2 km/h (1 Bft)
30.07.2010 02:30 13,4 C 92 % 1011,2 hPa 0,0 mm 0,0 km/h (0 Bft) W-SW 247 0 min 0 UV-I 0 W/m 1,6 km/h (1 Bft)
30.07.2010 02:40 13,4 C 93 % 1011,1 hPa 0,0 mm 0,0 km/h (0 Bft) W-SW 247 0 min 0 UV-I 0 W/m 1,6 km/h (1 Bft)
30.07.2010 02:50 13,4 C 93 % 1011,2 hPa 0,0 mm 0,0 km/h (0 Bft) W-SW 247 0 min 0 UV-I 0 W/m 1,6 km/h (1 Bft)
30.07.2010 03:00 13,6 C 93 % 1011,2 hPa 0,0 mm 0,0 km/h (0 Bft) W-SW 247 0 min 0 UV-I 0 W/m 4,8 km/h (1 Bft)
30.07.2010 03:10 13,6 C 93 % 1011,3 hPa 0,0 mm 0,0 km/h (0 Bft) W-SW 247 0 min 0 UV-I 0 W/m 6,4 km/h (2 Bft)
30.07.2010 03:20 13,6 C 93 % 1011,2 hPa 0,0 mm 1,6 km/h (1 Bft) SW 225 0 min 0 UV-I 0 W/m 6,4 km/h (2 Bft)
30.07.2010 03:30 13,6 C 93 % 1011,3 hPa 0,0 mm 0,0 km/h (0 Bft) W-SW 247 0 min 0 UV-I 0 W/m 4,8 km/h (1 Bft)
30.07.2010 03:40 13,7 C 93 % 1011,3 hPa 0,0 mm 1,6 km/h (1 Bft) W-SW 247 0 min 0 UV-I 0 W/m 6,4 km/h (2 Bft)
30.07.2010 03:50 13,7 C 93 % 1011,3 hPa 0,0 mm 1,6 km/h (1 Bft) W-SW 247 0 min 0 UV-I 0 W/m 6,4 km/h (2 Bft)
30.07.2010 04:00 13,7 C 93 % 1011,3 hPa 0,0 mm 1,6 km/h (1 Bft) W-SW 247 0 min 0 UV-I 0 W/m 8,0 km/h (2 Bft)
30.07.2010 04:10 13,7 C 93 % 1011,5 hPa 0,0 mm 1,6 km/h (1 Bft) W-SW 247 0 min 0 UV-I 0 W/m 9,7 km/h (2 Bft)
30.07.2010 04:20 13,7 C 93 % 1011,5 hPa 0,0 mm 3,2 km/h (1 Bft) W-SW 247 0 min 0 UV-I 0 W/m 11,3 km/h (2 Bft)
30.07.2010 04:30 13,7 C 93 % 1011,5 hPa 0,0 mm 3,2 km/h (1 Bft) W 270 0 min 0 UV-I 0 W/m 11,3 km/h (2 Bft)
30.07.2010 04:40 13,7 C 93 % 1011,5 hPa 0,0 mm 3,2 km/h (1 Bft) W 270 0 min 0 UV-I 0 W/m 9,7 km/h (2 Bft)
30.07.2010 04:50 13,7 C 93 % 1011,4 hPa 0,0 mm 1,6 km/h (1 Bft) W 270 0 min 0 UV-I 0 W/m 8,0 km/h (2 Bft)
30.07.2010 05:00 13,7 C 93 % 1011,6 hPa 0,0 mm 1,6 km/h (1 Bft) W 270 0 min 0 UV-I 0 W/m 9,7 km/h (2 Bft)
30.07.2010 05:10 13,7 C 93 % 1011,6 hPa 0,0 mm 3,2 km/h (1 Bft) W-SW 247 0 min 0 UV-I 0 W/m 9,7 km/h (2 Bft)
30.07.2010 05:20 13,7 C 93 % 1011,7 hPa 0,0 mm 1,6 km/h (1 Bft) W 270 0 min 0 UV-I 0 W/m 8,0 km/h (2 Bft)
30.07.2010 05:30 13,8 C 93 % 1011,7 hPa 0,0 mm 1,6 km/h (1 Bft) W-SW 247 0 min 0 UV-I 0 W/m 8,0 km/h (2 Bft)
30.07.2010 05:40 13,8 C 93 % 1011,9 hPa 0,0 mm 1,6 km/h (1 Bft) W-SW 247 0 min 0 UV-I 0 W/m 11,3 km/h (2 Bft)
30.07.2010 05:50 13,8 C 93 % 1011,9 hPa 0,0 mm 1,6 km/h (1 Bft) W 270 0 min 0 UV-I 0 W/m 8,0 km/h (2 Bft)
30.07.2010 06:00 13,8 C 93 % 1011,9 hPa 0,0 mm 0,0 km/h (0 Bft) SW 225 0 min 0 UV-I 0 W/m 4,8 km/h (1 Bft)
30.07.2010 06:10 13,8 C 93 % 1012,0 hPa 0,0 mm 0,0 km/h (0 Bft) SW 225 0 min 0 UV-I 5 W/m 4,8 km/h (1 Bft)
30.07.2010 06:20 13,8 C 93 % 1012,0 hPa 0,0 mm 1,6 km/h (1 Bft) W 270 0 min 0 UV-I 11 W/m 6,4 km/h (2 Bft)
30.07.2010 06:30 13,9 C 93 % 1012,2 hPa 0,0 mm 1,6 km/h (1 Bft) W 270 0 min 0 UV-I 12 W/m 6,4 km/h (2 Bft)
30.07.2010 06:40 13,9 C 93 % 1012,2 hPa 0,0 mm 3,2 km/h (1 Bft) W 270 0 min 0 UV-I 18 W/m 9,7 km/h (2 Bft)
30.07.2010 06:50 13,9 C 93 % 1012,2 hPa 0,0 mm 3,2 km/h (1 Bft) W-SW 247 0 min 0 UV-I 30 W/m 9,7 km/h (2 Bft)
30.07.2010 07:00 14,0 C 93 % 1012,2 hPa 0,0 mm 1,6 km/h (1 Bft) W-SW 247 0 min 0 UV-I 51 W/m 14,5 km/h (3 Bft)
30.07.2010 07:10 14,1 C 94 % 1012,3 hPa 0,0 mm 1,6 km/h (1 Bft) W-SW 247 0 min 0 UV-I 51 W/m 8,0 km/h (2 Bft)
30.07.2010 07:20 14,1 C 93 % 1012,4 hPa 0,0 mm 1,6 km/h (1 Bft) W-SW 247 0 min 0 UV-I 63 W/m 6,4 km/h (2 Bft)
30.07.2010 07:30 14,3 C 93 % 1012,5 hPa 0,0 mm 0,0 km/h (0 Bft) W-SW 247 0 min 0 UV-I 74 W/m 4,8 km/h (1 Bft)
30.07.2010 07:40 14,3 C 93 % 1012,5 hPa 0,0 mm 1,6 km/h (1 Bft) W 270 0 min 0 UV-I 67 W/m 8,0 km/h (2 Bft)
30.07.2010 07:50 14,3 C 93 % 1012,6 hPa 0,0 mm 1,6 km/h (1 Bft) W 270 0 min 0 UV-I 69 W/m 9,7 km/h (2 Bft)
30.07.2010 08:00 14,4 C 93 % 1012,6 hPa 0,0 mm 3,2 km/h (1 Bft) W 270 0 min 0 UV-I 54 W/m 9,7 km/h (2 Bft)
30.07.2010 08:10 14,4 C 93 % 1012,8 hPa 0,0 mm 3,2 km/h (1 Bft) W 270 0 min 1 UV-I 77 W/m 9,7 km/h (2 Bft)
30.07.2010 08:20 14,6 C 93 % 1012,7 hPa 0,0 mm 1,6 km/h (1 Bft) W-SW 247 0 min 1 UV-I 118 W/m 9,7 km/h (2 Bft)
30.07.2010 08:30 14,8 C 93 % 1012,8 hPa 0,0 mm 1,6 km/h (1 Bft) W 270 0 min 1 UV-I 141 W/m 8,0 km/h (2 Bft)
30.07.2010 08:40 15,0 C 92 % 1012,8 hPa 0,0 mm 4,8 km/h (1 Bft) W 270 0 min 1 UV-I 200 W/m 9,7 km/h (2 Bft)
30.07.2010 08:50 15,0 C 92 % 1012,9 hPa 0,0 mm 3,2 km/h (1 Bft) W 270 0 min 1 UV-I 174 W/m 11,3 km/h (2 Bft)
30.07.2010 09:00 15,1 C 91 % 1013,1 hPa 0,0 mm 3,2 km/h (1 Bft) W 270 0 min 1 UV-I 214 W/m 11,3 km/h (2 Bft)
30.07.2010 09:10 15,3 C 90 % 1013,2 hPa 0,0 mm 3,2 km/h (1 Bft) W-NW 292 0 min 1 UV-I 206 W/m 11,3 km/h (2 Bft)
30.07.2010 09:20 15,4 C 89 % 1013,2 hPa 0,0 mm 3,2 km/h (1 Bft) W 270 10 min 3 UV-I 526 W/m 8,0 km/h (2 Bft)
30.07.2010 09:30 16,3 C 87 % 1013,3 hPa 0,0 mm 3,2 km/h (1 Bft) W 270 10 min 3 UV-I 694 W/m 9,7 km/h (2 Bft)
30.07.2010 09:40 16,1 C 85 % 1013,5 hPa 0,0 mm 3,2 km/h (1 Bft) W 270 10 min 2 UV-I 350 W/m 11,3 km/h (2 Bft)
30.07.2010 09:50 16,6 C 83 % 1013,5 hPa 0,0 mm 3,2 km/h (1 Bft) W 270 10 min 3 UV-I 791 W/m 9,7 km/h (2 Bft)
30.07.2010 10:00 16,3 C 83 % 1013,6 hPa 0,0 mm 3,2 km/h (1 Bft) W 270 0 min 1 UV-I 148 W/m 9,7 km/h (2 Bft)
30.07.2010 10:10 15,9 C 84 % 1013,6 hPa 0,0 mm 1,6 km/h (1 Bft) W 270 0 min 2 UV-I 86 W/m 9,7 km/h (2 Bft)
30.07.2010 10:20 15,6 C 85 % 1013,6 hPa 0,0 mm 3,2 km/h (1 Bft) W-SW 247 0 min 2 UV-I 81 W/m 9,7 km/h (2 Bft)
30.07.2010 10:30 16,7 C 85 % 1013,4 hPa 0,0 mm 1,6 km/h (1 Bft) W 270 10 min 4 UV-I 659 W/m 9,7 km/h (2 Bft)
30.07.2010 10:40 17,6 C 83 % 1013,3 hPa 0,0 mm 3,2 km/h (1 Bft) W 270 10 min 5 UV-I 849 W/m 11,3 km/h (2 Bft)
30.07.2010 10:50 17,8 C 77 % 1013,4 hPa 0,0 mm 3,2 km/h (1 Bft) W 270 10 min 5 UV-I 872 W/m 11,3 km/h (2 Bft)
30.07.2010 11:00 17,3 C 79 % 1013,3 hPa 0,0 mm 3,2 km/h (1 Bft) W-SW 247 0 min 5 UV-I 144 W/m 14,5 km/h (3 Bft)
30.07.2010 11:10 17,4 C 79 % 1013,4 hPa 0,0 mm 4,8 km/h (1 Bft) W-SW 247 10 min 6 UV-I 840 W/m 11,3 km/h (2 Bft)
30.07.2010 11:20 17,6 C 75 % 1013,4 hPa 0,0 mm 6,4 km/h (2 Bft) W 270 10 min 6 UV-I 867 W/m 12,9 km/h (3 Bft)
30.07.2010 11:30 18,7 C 71 % 1013,4 hPa 0,0 mm 4,8 km/h (1 Bft) W 270 10 min 6 UV-I 838 W/m 14,5 km/h (3 Bft)
30.07.2010 11:40 18,6 C 75 % 1013,4 hPa 0,0 mm 4,8 km/h (1 Bft) S-SW 202 10 min 6 UV-I 884 W/m 12,9 km/h (3 Bft)
30.07.2010 11:50 19,4 C 69 % 1013,4 hPa 0,0 mm 3,2 km/h (1 Bft) S-SW 202 10 min 7 UV-I 860 W/m 14,5 km/h (3 Bft)
30.07.2010 12:00 19,4 C 70 % 1013,3 hPa 0,0 mm 6,4 km/h (2 Bft) W 270 10 min 7 UV-I 916 W/m 20,9 km/h (4 Bft)
30.07.2010 12:10 19,4 C 69 % 1013,4 hPa 0,0 mm 6,4 km/h (2 Bft) W-SW 247 10 min 7 UV-I 977 W/m 17,7 km/h (3 Bft)
30.07.2010 12:20 19,9 C 67 % 1013,3 hPa 0,0 mm 6,4 km/h (2 Bft) W 270 10 min 7 UV-I 1035 W/m 20,9 km/h (4 Bft)
30.07.2010 12:30 20,3 C 62 % 1013,3 hPa 0,0 mm 4,8 km/h (1 Bft) W 270 10 min 8 UV-I 1025 W/m 16,1 km/h (3 Bft)
30.07.2010 12:40 19,7 C 64 % 1013,4 hPa 0,0 mm 6,4 km/h (2 Bft) W 270 0 min 7 UV-I 338 W/m 19,3 km/h (3 Bft)
30.07.2010 12:50 19,4 C 63 % 1013,4 hPa 0,0 mm 4,8 km/h (1 Bft) W 270 0 min 7 UV-I 425 W/m 14,5 km/h (3 Bft)
30.07.2010 13:00 20,5 C 64 % 1013,5 hPa 0,0 mm 3,2 km/h (1 Bft) W-SW 247 10 min 8 UV-I 1044 W/m 16,1 km/h (3 Bft)
30.07.2010 13:10 20,2 C 62 % 1013,4 hPa 0,0 mm 6,4 km/h (2 Bft) W 270 10 min 7 UV-I 1071 W/m 17,7 km/h (3 Bft)
30.07.2010 13:20 21,2 C 61 % 1013,3 hPa 0,0 mm 3,2 km/h (1 Bft) W 270 10 min 8 UV-I 1004 W/m 12,9 km/h (3 Bft)
30.07.2010 13:30 20,7 C 60 % 1013,4 hPa 0,0 mm 6,4 km/h (2 Bft) W 270 10 min 8 UV-I 962 W/m 16,1 km/h (3 Bft)
30.07.2010 13:40 21,7 C 57 % 1013,4 hPa 0,0 mm 6,4 km/h (2 Bft) W-SW 247 10 min 8 UV-I 1002 W/m 17,7 km/h (3 Bft)
30.07.2010 13:50 21,0 C 54 % 1013,4 hPa 0,0 mm 6,4 km/h (2 Bft) W 270 10 min 6 UV-I 480 W/m 17,7 km/h (3 Bft)
30.07.2010 14:00 20,7 C 57 % 1013,5 hPa 0,0 mm 6,4 km/h (2 Bft) W 270 10 min 7 UV-I 1065 W/m 14,5 km/h (3 Bft)
30.07.2010 14:10 20,9 C 57 % 1013,4 hPa 0,0 mm 6,4 km/h (2 Bft) W-SW 247 10 min 8 UV-I 965 W/m 22,5 km/h (4 Bft)
30.07.2010 14:20 21,8 C 53 % 1013,4 hPa 0,0 mm 8,0 km/h (2 Bft) W 270 10 min 8 UV-I 1042 W/m 20,9 km/h (4 Bft)
30.07.2010 14:30 21,7 C 53 % 1013,5 hPa 0,0 mm 8,0 km/h (2 Bft) W-SW 247 10 min 7 UV-I 984 W/m 22,5 km/h (4 Bft)
30.07.2010 14:40 22,8 C 54 % 1013,4 hPa 0,0 mm 6,4 km/h (2 Bft) W 270 10 min 7 UV-I 1025 W/m 19,3 km/h (3 Bft)
30.07.2010 14:50 21,6 C 54 % 1013,6 hPa 0,0 mm 6,4 km/h (2 Bft) W 270 10 min 6 UV-I 965 W/m 24,1 km/h (4 Bft)
30.07.2010 15:00 19,9 C 62 % 1013,7 hPa 0,0 mm 3,2 km/h (1 Bft) W-NW 292 0 min 2 UV-I 158 W/m 14,5 km/h (3 Bft)
30.07.2010 15:10 19,7 C 64 % 1013,9 hPa 0,0 mm 1,6 km/h (1 Bft) NW 315 0 min 2 UV-I 241 W/m 9,7 km/h (2 Bft)
30.07.2010 15:20 20,1 C 63 % 1013,9 hPa 0,0 mm 1,6 km/h (1 Bft) W-NW 292 0 min 3 UV-I 338 W/m 8,0 km/h (2 Bft)
30.07.2010 15:30 21,4 C 58 % 1013,9 hPa 0,0 mm 3,2 km/h (1 Bft) N 360 10 min 6 UV-I 1053 W/m 16,1 km/h (3 Bft)
30.07.2010 15:40 21,8 C 56 % 1013,9 hPa 0,0 mm 4,8 km/h (1 Bft) W-NW 292 10 min 6 UV-I 976 W/m 20,9 km/h (4 Bft)
30.07.2010 15:50 21,8 C 55 % 1013,9 hPa 0,0 mm 3,2 km/h (1 Bft) W 270 10 min 6 UV-I 891 W/m 11,3 km/h (2 Bft)
30.07.2010 16:00 21,3 C 56 % 1013,9 hPa 0,0 mm 3,2 km/h (1 Bft) W-NW 292 10 min 3 UV-I 411 W/m 17,7 km/h (3 Bft)
30.07.2010 16:10 21,1 C 56 % 1013,9 hPa 0,0 mm 6,4 km/h (2 Bft) W 270 10 min 4 UV-I 503 W/m 17,7 km/h (3 Bft)
30.07.2010 16:20 22,1 C 53 % 1013,9 hPa 0,0 mm 6,4 km/h (2 Bft) W 270 10 min 4 UV-I 812 W/m 19,3 km/h (3 Bft)
30.07.2010 16:30 21,8 C 55 % 1013,9 hPa 0,0 mm 8,0 km/h (2 Bft) W 270 10 min 4 UV-I 378 W/m 19,3 km/h (3 Bft)
30.07.2010 16:40 21,7 C 53 % 1014,0 hPa 0,0 mm 6,4 km/h (2 Bft) W 270 10 min 3 UV-I 381 W/m 14,5 km/h (3 Bft)
30.07.2010 16:50 21,8 C 53 % 1014,0 hPa 0,0 mm 8,0 km/h (2 Bft) W-SW 247 10 min 3 UV-I 712 W/m 20,9 km/h (4 Bft)
30.07.2010 17:00 21,6 C 55 % 1014,0 hPa 0,0 mm 6,4 km/h (2 Bft) W-SW 247 10 min 3 UV-I 645 W/m 14,5 km/h (3 Bft)
30.07.2010 17:10 22,1 C 52 % 1013,9 hPa 0,0 mm 6,4 km/h (2 Bft) W 270 10 min 3 UV-I 635 W/m 16,1 km/h (3 Bft)
30.07.2010 17:20 22,7 C 50 % 1014,0 hPa 0,0 mm 3,2 km/h (1 Bft) W 270 10 min 3 UV-I 584 W/m 14,5 km/h (3 Bft)
30.07.2010 17:30 22,6 C 48 % 1013,7 hPa 0,0 mm 6,4 km/h (2 Bft) W 270 10 min 3 UV-I 555 W/m 17,7 km/h (3 Bft)
30.07.2010 17:40 22,7 C 48 % 1013,7 hPa 0,0 mm 6,4 km/h (2 Bft) W 270 10 min 2 UV-I 534 W/m 17,7 km/h (3 Bft)
30.07.2010 17:50 22,9 C 48 % 1013,8 hPa 0,0 mm 6,4 km/h (2 Bft) W-SW 247 10 min 2 UV-I 503 W/m 19,3 km/h (3 Bft)
30.07.2010 18:00 22,8 C 50 % 1013,9 hPa 0,0 mm 6,4 km/h (2 Bft) W-SW 247 10 min 2 UV-I 475 W/m 17,7 km/h (3 Bft)
30.07.2010 18:10 22,6 C 49 % 1013,9 hPa 0,0 mm 6,4 km/h (2 Bft) W 270 10 min 2 UV-I 466 W/m 16,1 km/h (3 Bft)
30.07.2010 18:20 22,8 C 49 % 1014,0 hPa 0,0 mm 6,4 km/h (2 Bft) W-SW 247 10 min 2 UV-I 445 W/m 16,1 km/h (3 Bft)
30.07.2010 18:30 22,8 C 49 % 1013,9 hPa 0,0 mm 3,2 km/h (1 Bft) W 270 10 min 2 UV-I 403 W/m 14,5 km/h (3 Bft)
30.07.2010 18:40 22,7 C 50 % 1013,9 hPa 0,0 mm 4,8 km/h (1 Bft) S-SW 202 10 min 1 UV-I 352 W/m 14,5 km/h (3 Bft)
30.07.2010 18:50 22,3 C 49 % 1014,0 hPa 0,0 mm 4,8 km/h (1 Bft) W 270 10 min 1 UV-I 350 W/m 16,1 km/h (3 Bft)
30.07.2010 19:00 22,2 C 51 % 1013,9 hPa 0,0 mm 3,2 km/h (1 Bft) W 270 10 min 1 UV-I 308 W/m 8,0 km/h (2 Bft)
30.07.2010 19:10 22,5 C 50 % 1014,0 hPa 0,0 mm 4,8 km/h (1 Bft) W 270 10 min 1 UV-I 294 W/m 14,5 km/h (3 Bft)
30.07.2010 19:20 22,1 C 48 % 1014,0 hPa 0,0 mm 8,0 km/h (2 Bft) W 270 10 min 1 UV-I 265 W/m 17,7 km/h (3 Bft)
30.07.2010 19:30 21,8 C 49 % 1014,1 hPa 0,0 mm 3,2 km/h (1 Bft) W-SW 247 10 min 1 UV-I 220 W/m 11,3 km/h (2 Bft)
30.07.2010 19:40 21,7 C 49 % 1014,1 hPa 0,0 mm 4,8 km/h (1 Bft) W-SW 247 10 min 1 UV-I 193 W/m 14,5 km/h (3 Bft)
30.07.2010 19:50 21,4 C 51 % 1014,2 hPa 0,0 mm 3,2 km/h (1 Bft) W 270 10 min 1 UV-I 156 W/m 11,3 km/h (2 Bft)
30.07.2010 20:00 21,3 C 52 % 1014,2 hPa 0,0 mm 3,2 km/h (1 Bft) W 270 10 min 1 UV-I 144 W/m 9,7 km/h (2 Bft)
30.07.2010 20:10 21,0 C 52 % 1014,3 hPa 0,0 mm 1,6 km/h (1 Bft) SW 225 0 min 0 UV-I 72 W/m 8,0 km/h (2 Bft)
30.07.2010 20:20 20,8 C 54 % 1014,3 hPa 0,0 mm 1,6 km/h (1 Bft) W-SW 247 0 min 0 UV-I 42 W/m 6,4 km/h (2 Bft)
30.07.2010 20:30 20,6 C 55 % 1014,3 hPa 0,0 mm 0,0 km/h (0 Bft) W-SW 247 0 min 0 UV-I 35 W/m 4,8 km/h (1 Bft)
30.07.2010 20:40 20,3 C 56 % 1014,2 hPa 0,0 mm 0,0 km/h (0 Bft) W-SW 247 0 min 0 UV-I 28 W/m 4,8 km/h (1 Bft)
30.07.2010 20:50 20,0 C 57 % 1014,4 hPa 0,0 mm 0,0 km/h (0 Bft) W-SW 247 0 min 0 UV-I 23 W/m 3,2 km/h (1 Bft)
30.07.2010 21:00 19,7 C 58 % 1014,4 hPa 0,0 mm 0,0 km/h (0 Bft) W-SW 247 10 min 0 UV-I 16 W/m 3,2 km/h (1 Bft)
30.07.2010 21:10 19,2 C 60 % 1014,4 hPa 0,0 mm 0,0 km/h (0 Bft) N 0 0 min 0 UV-I 11 W/m 0,0 km/h (0 Bft)
30.07.2010 21:20 18,7 C 63 % 1014,6 hPa 0,0 mm 0,0 km/h (0 Bft) N 0 0 min 0 UV-I 5 W/m 0,0 km/h (0 Bft)
30.07.2010 21:30 17,9 C 66 % 1014,7 hPa 0,0 mm 0,0 km/h (0 Bft) N 0 0 min 0 UV-I 0 W/m 0,0 km/h (0 Bft)
30.07.2010 21:40 17,4 C 69 % 1014,8 hPa 0,0 mm 0,0 km/h (0 Bft) N 0 0 min 0 UV-I 0 W/m 0,0 km/h (0 Bft)
30.07.2010 21:50 17,1 C 71 % 1014,9 hPa 0,0 mm 0,0 km/h (0 Bft) N 0 0 min 0 UV-I 0 W/m 0,0 km/h (0 Bft)
30.07.2010 22:00 16,7 C 72 % 1014,9 hPa 0,0 mm 0,0 km/h (0 Bft) N 0 0 min 0 UV-I 0 W/m 0,0 km/h (0 Bft)
30.07.2010 22:10 16,4 C 73 % 1015,0 hPa 0,0 mm 0,0 km/h (0 Bft) N 0 0 min 0 UV-I 0 W/m 0,0 km/h (0 Bft)
30.07.2010 22:20 16,1 C 74 % 1015,0 hPa 0,0 mm 0,0 km/h (0 Bft) N 0 0 min 0 UV-I 0 W/m 0,0 km/h (0 Bft)
30.07.2010 22:30 16,2 C 74 % 1015,0 hPa 0,0 mm 0,0 km/h (0 Bft) N 0 0 min 0 UV-I 0 W/m 0,0 km/h (0 Bft)
30.07.2010 22:40 16,1 C 74 % 1015,0 hPa 0,0 mm 0,0 km/h (0 Bft) W-SW 247 0 min 0 UV-I 0 W/m 1,6 km/h (1 Bft)
30.07.2010 22:50 16,0 C 74 % 1014,9 hPa 0,0 mm 0,0 km/h (0 Bft) S-SW 202 0 min 0 UV-I 0 W/m 3,2 km/h (1 Bft)
30.07.2010 23:00 15,9 C 74 % 1014,9 hPa 0,0 mm 0,0 km/h (0 Bft) S-SO 157 0 min 0 UV-I 0 W/m 3,2 km/h (1 Bft)
30.07.2010 23:10 15,9 C 74 % 1014,9 hPa 0,0 mm 0,0 km/h (0 Bft) S-SO 157 0 min 0 UV-I 0 W/m 1,6 km/h (1 Bft)
30.07.2010 23:20 15,8 C 75 % 1015,0 hPa 0,0 mm 0,0 km/h (0 Bft) S-SO 157 0 min 0 UV-I 0 W/m 1,6 km/h (1 Bft)
30.07.2010 23:30 15,6 C 76 % 1015,1 hPa 0,0 mm 0,0 km/h (0 Bft) S-SO 157 0 min 0 UV-I 0 W/m 4,8 km/h (1 Bft)
30.07.2010 23:40 15,3 C 77 % 1015,2 hPa 0,0 mm 0,0 km/h (0 Bft) S-SO 157 0 min 0 UV-I 0 W/m 4,8 km/h (1 Bft)
30.07.2010 23:50 15,0 C 78 % 1015,2 hPa 0,0 mm 0,0 km/h (0 Bft) S-SO 157 0 min 0 UV-I 0 W/m 3,2 km/h (1 Bft)
_ Min-Zeit 01:30 17:30 00:00 - 01:00 - - - - - 21:10
Minimum _ 13,1 C 48 % 1010,9 hPa - 0,0 km/h (0 Bft) - - - - - 0,0 km/h (0 Bft)
_ Max-Zeit 14:50 07:10 23:40 02:00 14:20 - - 09:20 13:20 13:10 14:50
Maximum _ 22,9 C 94 % 1015,2 hPa 0,3 mm 8,0 km/h
W (2 Bft)
- - 10 min 8 UV-I 1071 W/m 24,1 km/h
SW (4 Bft)
Durchschnitt _ 17,4 C 75 % 1013,1 hPa #0,3 mm 2,8 km/h (1 Bft) W - #9:30 h 4 UV-I 457 W/m 10,1 km/h (2 Bft)